Weather History for KHKY - January, 2014

Change the Weather History Date:

Thursday, January 23, 2014

  Actual Average Record
Temperature  
Mean Temperature 28 °F -  
Max Temperature 36 °F 49 °F 72 °F (1967)
Min Temperature 18 °F 28 °F 10 °F (1977)
Degree Days  
Heating Degree Days 38    
Moisture  
Dew Point 1 °F    
Average Humidity 34    
Maximum Humidity 53    
Minimum Humidity 22    
Precipitation  
Precipitation 0.00 in - - ()
Sea Level Pressure  
Sea Level Pressure 30.22 in    
Wind  
Wind Speed 9 mph (WNW)    
Max Wind Speed 18 mph    
Max Gust Speed 26 mph    
Visibility 10 miles    
Events      
Averages and records for this station are not official NWS values.
T = Trace of Precipitation, MM = Missing Value Source: NWS Daily Summary

Daily Weather History Graph

Daily Weather History Graph

Search for Another Location

Airport or City:

Trip Planner

Search our weather history database for the weather conditions in past years. The results will help you decide how hot, cold, wet, or windy it might be!

Date:

Astronomy

Jan. 23, 2014 Rise Set
Actual Time 7:31 AM EST 5:43 PM EST
Civil Twilight 7:04 AM EST 6:10 PM EST
Nautical Twilight 6:33 AM EST 6:42 PM EST
Astronomical Twilight 6:02 AM EST 7:12 PM EST
Moon No Moon Rise 11:21 AM EST (1/23)
Length of Visible Light 11h 06m
Length of Day
10h 12m
Waning Gibbous, 55% of the Moon is Illuminated
Jan 23
Waning Gibbous
Jan 24
Last Quarter
Jan 30
New
Feb 6
First Quarter
Feb 14
Full

Hourly Weather History & Observations

Time (EST) Temp. Windchill Dew Point Humidity Pressure Visibility Wind Dir Wind Speed Gust Speed Precip Events Conditions
12:53 AM 26.1 °F 18.4 °F -0.0 °F 32% 30.06 in 10.0 mi Variable 6.9 mph - N/A   Clear
1:53 AM 25.0 °F 18.1 °F -0.0 °F 34% 30.07 in 10.0 mi Variable 5.8 mph - N/A   Clear
2:53 AM 24.1 °F 13.7 °F 1.9 °F 38% 30.09 in 10.0 mi NW 10.4 mph - N/A   Clear
3:53 AM 23.0 °F 15.8 °F 3.0 °F 42% 30.11 in 10.0 mi NNW 5.8 mph - N/A   Clear
4:53 AM 23.0 °F 14.7 °F 3.0 °F 42% 30.12 in 10.0 mi NW 6.9 mph - N/A   Clear
5:53 AM 23.0 °F 17.0 °F 3.9 °F 44% 30.13 in 10.0 mi NNW 4.6 mph - N/A   Clear
6:53 AM 21.0 °F - 6.1 °F 53% 30.17 in 10.0 mi Calm Calm - N/A   Clear
7:53 AM 24.1 °F 12.0 °F 6.1 °F 46% 30.18 in 10.0 mi West 13.8 mph 23.0 mph N/A   Clear
8:53 AM 26.1 °F 16.2 °F 6.1 °F 43% 30.18 in 10.0 mi WNW 10.4 mph - N/A   Clear
9:53 AM 28.0 °F 18.1 °F 6.1 °F 39% 30.22 in 10.0 mi West 11.5 mph 20.7 mph N/A   Clear
10:53 AM 30.9 °F 20.7 °F 6.1 °F 35% 30.24 in 10.0 mi West 13.8 mph 23.0 mph N/A   Clear
11:53 AM 32.0 °F 23.0 °F 5.0 °F 32% 30.22 in 10.0 mi WSW 11.5 mph - N/A   Clear
12:53 PM 34.0 °F 26.0 °F 5.0 °F 30% 30.20 in 10.0 mi West 10.4 mph - N/A   Clear
1:53 PM 36.0 °F 27.1 °F 3.0 °F 25% 30.20 in 10.0 mi West 13.8 mph 19.6 mph N/A   Clear
2:53 PM 35.1 °F 26.9 °F 3.0 °F 26% 30.20 in 10.0 mi WSW 11.5 mph - N/A   Clear
3:53 PM 35.1 °F 26.4 °F -0.9 °F 22% 30.21 in 10.0 mi WNW 12.7 mph 20.7 mph N/A   Clear
4:53 PM 32.0 °F 22.5 °F -0.0 °F 26% 30.24 in 10.0 mi NW 12.7 mph 19.6 mph N/A   Clear
5:53 PM 28.9 °F 22.8 °F -0.0 °F 29% 30.27 in 10.0 mi North 5.8 mph - N/A   Clear
6:53 PM 27.0 °F 16.1 °F -2.9 °F 27% 30.31 in 10.0 mi NW 12.7 mph 20.7 mph N/A   Clear
7:53 PM 25.0 °F 14.8 °F -2.9 °F 30% 30.33 in 10.0 mi NW 10.4 mph 19.6 mph N/A   Clear
8:53 PM 24.1 °F 16.0 °F -4.0 °F 29% 30.34 in 10.0 mi NNW 6.9 mph 20.7 mph N/A   Clear
9:53 PM 21.9 °F 7.3 °F -5.1 °F 30% 30.36 in 10.0 mi NW 18.4 mph 26.5 mph N/A   Clear
10:53 PM 19.9 °F 6.2 °F -6.0 °F 32% 30.39 in 10.0 mi NNW 15.0 mph 25.3 mph N/A   Clear
11:53 PM 18.0 °F 3.6 °F -4.0 °F 38% 30.40 in 10.0 mi NNW 15.0 mph 21.9 mph N/A   Clear